Location: Anmer
(52.8333°N, 0.5833°E)
Time: 19:53:20
(UTC+00:00)

Cosmos 1513 Rocket - Pass Details

Date: 15 May 2026
Orbit: 938 x 1008 km, 82.9° (Epoch: 6 June)

Event Time Altitude Azimuth Distance (km) Brightness Sun altitude
Exits shadow 21:15:00 - 183° (S) 3,302 6.8 -10.3°
Reaches altitude 10° 21:16:35 10° 182° (S) 2,708 6.4 -10.5°
Maximum altitude 21:22:46 78° 97° (E) 984 4.5 -11.0°
Drops below altitude 10° 21:28:53 10° 13° (NNE) 2,683 7.4 -11.6°
Sets 21:31:22 0° 12° (NNE) 3,625 8.2 -11.8°
